Home > Weather > Cumaná > Past weeks

Flag for Venezuela Past Weather in Cumaná, Venezuela — Yesterday and Last 2 Weeks

Now
82 °F

Passing clouds.


Feels Like: 89 °F
Forecast: 78 / 88 °F
Wind: N/A

Location: Margarita / Del Carib

Current Time: Aug 25, 2016 at 7:45:52 AM

Latest Report: Aug 25, 2016 at 7:00 AM


Visibility: N/A

Pressure: 29.89 "Hg

Humidity: 79%

Dew Point: 75 °F

Location of CumanáLocation

Past Weather in Cumaná — Graph

°F

Cumaná Temperature Yesterday

Maximum temperature yesterday: 91 °F (at 1:00 PM)
Minimum temperature yesterday: 79 °F (at 2:00 AM)
Average temperature yesterday: 84 °F

High & Low Weather Summary for the Past Weeks

 TemperatureHumidityPressure
High102 °F (Aug 23, 6:00 PM)100% (Aug 14, 7:00 AM)29.98 "Hg (Aug 14, 7:00 AM)
Low72 °F (Aug 14, 7:00 AM)34% (Aug 23, 2:00 PM)29.80 "Hg (Aug 19, 4:00 PM)
Average84 °F75%29.91 "Hg
* Reported Aug 10 7:00 AM — Aug 25 7:00 AM, Cumaná, Weather by CustomWeather, © 2016

Note: Actual official high and low records may vary slightly from our data, if they occured in-between our weather recording intervals... More about our weather records

Advertising

Cumaná Weather History for the Previous 24 Hours

Scroll right to see more
 ConditionsComfort  
Time TempWeatherWind HumidityBarometerVisibility
7:00 AM
Thu, Aug 25
82 °FPassing clouds.N/A79%29.89 "HgN/A
6:00 AM81 °FScattered clouds.N/A79%29.89 "HgN/A
5:00 AM79 °FPassing clouds.N/A84%29.86 "HgN/A
4:00 AM79 °FPassing clouds.N/A84%29.89 "HgN/A
3:00 AM79 °FPassing clouds.N/A84%29.89 "HgN/A
2:00 AM81 °FPassing clouds.N/A79%29.92 "HgN/A
1:00 AM81 °FPassing clouds.N/A79%29.92 "HgN/A
12:00 AM81 °FPassing clouds.N/A79%29.92 "HgN/A
11:00 PM
Wed, Aug 24
81 °FPassing clouds.N/A84%29.92 "HgN/A
10:00 PM82 °FPassing clouds.N/A79%29.92 "HgN/A
9:00 PM82 °FPassing clouds.N/A79%29.92 "HgN/A
8:00 PM81 °FPassing clouds.N/A79%29.89 "HgN/A
7:00 PM81 °FPassing clouds.N/A79%29.89 "HgN/A
6:00 PM82 °FPassing clouds.N/A79%29.86 "HgN/A
5:00 PM84 °FPassing clouds.N/A66%29.80 "HgN/A
4:00 PM90 °FPassing clouds.N/A52%29.83 "HgN/A
3:00 PM91 °FPassing clouds.N/A49%29.86 "HgN/A
2:00 PM91 °FPassing clouds.N/A52%29.89 "HgN/A
1:00 PM91 °FPassing clouds.N/A52%29.89 "HgN/A
12:00 PM90 °FPassing clouds.N/A55%29.95 "HgN/A
11:00 AM88 °FPassing clouds.N/A62%29.95 "HgN/A
10:00 AM86 °FPassing clouds.N/A62%29.95 "HgN/A
9:00 AM84 °FPassing clouds.N/A70%29.92 "HgN/A
8:00 AM84 °FPassing clouds.N/A79%29.89 "HgN/A
7:00 AM81 °FPassing clouds.N/A84%29.89 "HgN/A
Weather by CustomWeather, © 2016

See weather overviewHow to use our weather pages